Bettles Field, AK

2:42 PM AKDT on September 25, 2016 (GMT -0800)
Bettles

Weather History for PABT - March, 2014

Change the Weather History Date:

Sunday, March 23, 2014

  Actual Average Record
Temperature  
Mean Temperature 16 °F -  
Max Temperature 33 °F 19 °F 42 °F (1998)
Min Temperature -2 °F -5 °F -37 °F (1972)
Degree Days  
Heating Degree Days 50    
Moisture  
Dew Point -1 °F    
Average Humidity 52    
Maximum Humidity 75    
Minimum Humidity 18    
Precipitation  
Precipitation 0.00 in - - ()
Snow  
Snow 0.00 in - - ()
Snow Depth 29.00 in    
Sea Level Pressure  
Sea Level Pressure 30.67 in    
Wind  
Wind Speed 4 mph (North)    
Max Wind Speed 8 mph    
Max Gust Speed -    
Visibility 10 miles    
Events      
Averages and records for this station are not official NWS values.
T = Trace of Precipitation, MM = Missing Value Source: NWS Daily Summary

Daily Weather History Graph

Daily Weather History Graph

Search for Another Location

Airport or City:

Trip Planner

Search our weather history database for the weather conditions in past years. The results will help you decide how hot, cold, wet, or windy it might be!

Date:

Astronomy

Mar. 23, 2014 Rise Set
Actual Time 7:53 AM AKDT 8:33 PM AKDT
Civil Twilight 6:59 AM AKDT 9:28 PM AKDT
Nautical Twilight 5:51 AM AKDT 10:36 PM AKDT
Astronomical Twilight 4:26 AM AKDT 12:04 AM AKDT
Moon 5:22 AM AKDT (3/23) 10:22 AM AKDT (3/23)
Length of Visible Light 14h 28m
Length of Day
12h 40m
Waning Gibbous, 53% of the Moon is Illuminated
Mar 23
Waning Gibbous
Mar 23
Last Quarter
Mar 30
New
Apr 7
First Quarter
Apr 14
Full

Hourly Weather History & Observations

Time (AKDT) Temp. Windchill Dew Point Humidity Pressure Visibility Wind Dir Wind Speed Gust Speed Precip Events Conditions
12:53 AM 6.1 °F -2.8 °F -4.0 °F 63% 30.72 in 10.0 mi North 4.6 mph - N/A   Clear
1:53 AM 3.9 °F -5.3 °F -5.1 °F 66% 30.72 in 10.0 mi NNE 4.6 mph - N/A   Clear
2:53 AM 1.0 °F -6.7 °F -7.1 °F 69% 30.71 in 10.0 mi North 3.5 mph - N/A   Clear
3:53 AM 1.0 °F -6.7 °F -5.1 °F 75% 30.71 in 10.0 mi North 3.5 mph - N/A   Clear
4:53 AM 3.9 °F -6.9 °F -4.0 °F 70% 30.71 in 10.0 mi NNW 5.8 mph - N/A   Clear
5:53 AM 1.9 °F -9.2 °F -5.1 °F 72% 30.71 in 10.0 mi NNW 5.8 mph - N/A   Clear
6:53 AM 3.0 °F -10.5 °F -5.1 °F 69% 30.71 in 10.0 mi NNW 8.1 mph - N/A   Partly Cloudy
7:53 AM 1.0 °F -8.7 °F -6.0 °F 72% 30.71 in 10.0 mi NNW 4.6 mph - N/A   Partly Cloudy
8:53 AM 1.9 °F -7.6 °F -7.1 °F 66% 30.72 in 10.0 mi NNW 4.6 mph - N/A   Partly Cloudy
9:53 AM 7.0 °F -4.5 °F -4.0 °F 61% 30.71 in 10.0 mi North 6.9 mph - N/A   Partly Cloudy
10:53 AM 12.9 °F 3.8 °F -2.0 °F 51% 30.70 in 10.0 mi North 5.8 mph - N/A   Partly Cloudy
11:53 AM 19.0 °F 12.3 °F -0.0 °F 43% 30.69 in 10.0 mi North 4.6 mph - N/A   Partly Cloudy
12:53 PM 21.9 °F 14.5 °F 1.0 °F 40% 30.69 in 10.0 mi North 5.8 mph - N/A   Partly Cloudy
1:53 PM 26.1 °F 21.9 °F 3.0 °F 37% 30.68 in 10.0 mi North 3.5 mph - N/A   Partly Cloudy
2:53 PM 28.0 °F 22.8 °F 3.0 °F 34% 30.66 in 10.0 mi NNE 4.6 mph - N/A   Partly Cloudy
3:53 PM 30.9 °F 25.2 °F 3.9 °F 32% 30.64 in 10.0 mi NNE 5.8 mph - N/A   Partly Cloudy
4:53 PM 32.0 °F 27.5 °F 3.9 °F 31% 30.62 in 10.0 mi NE 4.6 mph - N/A   Scattered Clouds
5:53 PM 32.0 °F 28.7 °F 3.9 °F 31% 30.61 in 10.0 mi NNE 3.5 mph - N/A   Scattered Clouds
6:53 PM 30.9 °F 27.5 °F 3.9 °F 32% 30.60 in 10.0 mi NE 3.5 mph - N/A   Partly Cloudy
7:53 PM 26.1 °F 20.5 °F 3.9 °F 39% 30.60 in 10.0 mi NNE 4.6 mph - N/A   Partly Cloudy
8:53 PM 21.9 °F - 3.0 °F 44% 30.59 in 10.0 mi Calm Calm - N/A   Partly Cloudy
9:53 PM 12.0 °F - 1.0 °F 61% 30.59 in 10.0 mi Calm Calm - N/A   Partly Cloudy
10:53 PM 6.1 °F - -2.9 °F 67% 30.60 in 10.0 mi Calm Calm - N/A   Clear
11:53 PM 3.0 °F -4.4 °F -5.1 °F 69% 30.60 in 10.0 mi NNW 3.5 mph - N/A   Clear